Year,Month,Day,Hour,Minute,Value (Times are PST for temperature in C)
2009,07,18,00,00,18.60
2009,07,18,00,01,18.70
2009,07,18,00,02,18.70
2009,07,18,00,03,18.70
2009,07,18,00,04,18.80
2009,07,18,00,05,19.00
2009,07,18,00,06,19.00
2009,07,18,00,07,19.10
2009,07,18,00,08,19.10
2009,07,18,00,09,19.10
2009,07,18,00,10,19.10
2009,07,18,00,11,19.00
2009,07,18,00,12,19.00
2009,07,18,00,13,18.90
2009,07,18,00,14,18.90
2009,07,18,00,15,18.80
2009,07,18,00,16,18.80
2009,07,18,00,17,18.70
2009,07,18,00,18,18.60
2009,07,18,00,19,18.60
2009,07,18,00,20,18.50
2009,07,18,00,21,18.40
2009,07,18,00,22,18.30
2009,07,18,00,23,18.20
2009,07,18,00,24,18.20
2009,07,18,00,25,18.10
2009,07,18,00,26,18.10
2009,07,18,00,27,18.00
2009,07,18,00,28,18.00
2009,07,18,00,29,17.90
2009,07,18,00,30,17.90
2009,07,18,00,31,17.90
2009,07,18,00,32,17.90
2009,07,18,00,33,17.80
2009,07,18,00,34,17.80
2009,07,18,00,35,17.80
2009,07,18,00,36,17.80
2009,07,18,00,37,17.80
2009,07,18,00,38,17.80
2009,07,18,00,39,17.70
2009,07,18,00,40,17.70
2009,07,18,00,41,17.60
2009,07,18,00,42,17.60
2009,07,18,00,43,17.50
2009,07,18,00,44,17.50
2009,07,18,00,45,17.50
2009,07,18,00,46,17.40
2009,07,18,00,47,17.40
2009,07,18,00,48,17.40
2009,07,18,00,49,17.40
2009,07,18,00,50,17.40
2009,07,18,00,51,17.50
2009,07,18,00,52,17.50
2009,07,18,00,53,17.50
2009,07,18,00,54,17.40
2009,07,18,00,55,17.40
2009,07,18,00,56,17.30
2009,07,18,00,57,17.30
2009,07,18,00,58,17.20
2009,07,18,00,59,17.20
2009,07,18,01,00,17.10
2009,07,18,01,01,17.10
2009,07,18,01,02,17.10
2009,07,18,01,03,17.00
2009,07,18,01,04,17.10
2009,07,18,01,05,17.10
2009,07,18,01,06,17.20
2009,07,18,01,07,17.20
2009,07,18,01,08,17.20
2009,07,18,01,09,17.30
2009,07,18,01,10,17.30
2009,07,18,01,11,17.30
2009,07,18,01,12,17.30
2009,07,18,01,13,17.30
2009,07,18,01,14,17.30
2009,07,18,01,15,17.30
2009,07,18,01,16,17.30
2009,07,18,01,17,17.30
2009,07,18,01,18,17.30
2009,07,18,01,19,17.20
2009,07,18,01,20,17.20
2009,07,18,01,21,17.20
2009,07,18,01,22,17.20
2009,07,18,01,23,17.10
2009,07,18,01,24,17.10
2009,07,18,01,25,17.00
2009,07,18,01,26,17.00
2009,07,18,01,27,16.90
2009,07,18,01,28,16.90
2009,07,18,01,29,16.80
2009,07,18,01,30,16.80
2009,07,18,01,31,16.70
2009,07,18,01,32,16.70
2009,07,18,01,33,16.70
2009,07,18,01,34,16.60
2009,07,18,01,35,16.60
2009,07,18,01,36,16.60
2009,07,18,01,37,16.50
2009,07,18,01,38,16.50
2009,07,18,01,39,16.50
2009,07,18,01,40,16.40
2009,07,18,01,41,16.40
2009,07,18,01,42,16.30
2009,07,18,01,43,16.30
2009,07,18,01,44,16.30
2009,07,18,01,45,16.30
2009,07,18,01,46,16.30
2009,07,18,01,47,16.20
2009,07,18,01,48,16.20
2009,07,18,01,49,16.20
2009,07,18,01,50,16.20
2009,07,18,01,51,16.20
2009,07,18,01,52,16.20
2009,07,18,01,53,16.20
2009,07,18,01,54,16.20
2009,07,18,01,55,16.20
2009,07,18,01,56,16.20
2009,07,18,01,57,16.20
2009,07,18,01,58,16.20
2009,07,18,01,59,16.20
2009,07,18,02,00,16.20
2009,07,18,02,01,16.10
2009,07,18,02,02,16.10
2009,07,18,02,03,16.10
2009,07,18,02,04,16.10
2009,07,18,02,05,16.10
2009,07,18,02,06,16.10
2009,07,18,02,07,16.10
2009,07,18,02,08,16.10
2009,07,18,02,09,16.10
2009,07,18,02,10,16.10
2009,07,18,02,11,16.10
2009,07,18,02,12,16.10
2009,07,18,02,13,16.10
2009,07,18,02,14,16.10
2009,07,18,02,15,16.10
2009,07,18,02,16,16.10
2009,07,18,02,17,16.10
2009,07,18,02,18,16.10
2009,07,18,02,19,16.10
2009,07,18,02,20,16.10
2009,07,18,02,21,16.00
2009,07,18,02,22,16.00
2009,07,18,02,23,15.90
2009,07,18,02,24,15.90
2009,07,18,02,25,15.80
2009,07,18,02,26,15.80
2009,07,18,02,27,15.80
2009,07,18,02,28,15.80
2009,07,18,02,29,15.70
2009,07,18,02,30,15.70
2009,07,18,02,31,15.70
2009,07,18,02,32,15.70
2009,07,18,02,33,15.70
2009,07,18,02,34,15.70
2009,07,18,02,35,15.70
2009,07,18,02,36,15.60
2009,07,18,02,37,15.60
2009,07,18,02,38,15.60
2009,07,18,02,39,15.60
2009,07,18,02,40,15.60
2009,07,18,02,41,15.60
2009,07,18,02,42,15.60
2009,07,18,02,43,15.60
2009,07,18,02,44,15.60
2009,07,18,02,45,15.60
2009,07,18,02,46,15.60
2009,07,18,02,47,15.60
2009,07,18,02,48,15.60
2009,07,18,02,49,15.60
2009,07,18,02,50,15.70
2009,07,18,02,51,15.70
2009,07,18,02,52,15.80
2009,07,18,02,53,15.80
2009,07,18,02,54,15.80
2009,07,18,02,55,15.80
2009,07,18,02,56,15.70
2009,07,18,02,57,15.70
2009,07,18,02,58,15.70
2009,07,18,02,59,15.70
2009,07,18,03,00,15.70
2009,07,18,03,01,15.70
2009,07,18,03,02,15.70
2009,07,18,03,03,15.70
2009,07,18,03,04,15.70
2009,07,18,03,05,15.70
2009,07,18,03,06,15.70
2009,07,18,03,07,15.60
2009,07,18,03,08,15.60
2009,07,18,03,09,15.60
2009,07,18,03,10,15.60
2009,07,18,03,11,15.60
2009,07,18,03,12,15.60
2009,07,18,03,13,15.60
2009,07,18,03,14,15.60
2009,07,18,03,15,15.60
2009,07,18,03,16,15.50
2009,07,18,03,17,15.50
2009,07,18,03,18,15.50
2009,07,18,03,19,15.50
2009,07,18,03,20,15.40
2009,07,18,03,21,15.40
2009,07,18,03,22,15.40
2009,07,18,03,23,15.40
2009,07,18,03,24,15.30
2009,07,18,03,25,15.30
2009,07,18,03,26,15.30
2009,07,18,03,27,15.30
2009,07,18,03,28,15.30
2009,07,18,03,29,15.20
2009,07,18,03,30,15.20
2009,07,18,03,31,15.20
2009,07,18,03,32,15.10
2009,07,18,03,33,15.10
2009,07,18,03,34,15.10
2009,07,18,03,35,15.10
2009,07,18,03,36,15.10
2009,07,18,03,37,15.10
2009,07,18,03,38,15.20
2009,07,18,03,39,15.20
2009,07,18,03,40,15.30
2009,07,18,03,41,15.30
2009,07,18,03,42,15.30
2009,07,18,03,43,15.30
2009,07,18,03,44,15.30
2009,07,18,03,45,15.30
2009,07,18,03,46,15.30
2009,07,18,03,47,15.30
2009,07,18,03,48,15.30
2009,07,18,03,49,15.30
2009,07,18,03,50,15.30
2009,07,18,03,51,15.30
2009,07,18,03,52,15.30
2009,07,18,03,53,15.30
2009,07,18,03,54,15.30
2009,07,18,03,55,15.30
2009,07,18,03,56,15.30
2009,07,18,03,57,15.20
2009,07,18,03,58,15.20
2009,07,18,03,59,15.20
2009,07,18,04,00,15.20
2009,07,18,04,01,15.20
2009,07,18,04,02,15.20
2009,07,18,04,03,15.20
2009,07,18,04,04,15.20
2009,07,18,04,05,15.30
2009,07,18,04,06,15.30
2009,07,18,04,07,15.40
2009,07,18,04,08,15.40
2009,07,18,04,09,15.40
2009,07,18,04,10,15.40
2009,07,18,04,11,15.40
2009,07,18,04,12,15.40
2009,07,18,04,13,15.40
2009,07,18,04,14,15.40
2009,07,18,04,15,15.40
2009,07,18,04,16,15.40
2009,07,18,04,17,15.40
2009,07,18,04,18,15.40
2009,07,18,04,19,15.40
2009,07,18,04,20,15.40
2009,07,18,04,21,15.40
2009,07,18,04,22,15.30
2009,07,18,04,23,15.30
2009,07,18,04,24,15.30
2009,07,18,04,25,15.30
2009,07,18,04,26,15.20
2009,07,18,04,27,15.20
2009,07,18,04,28,15.20
2009,07,18,04,29,15.10
2009,07,18,04,30,15.10
2009,07,18,04,31,15.10
2009,07,18,04,32,15.10
2009,07,18,04,33,15.10
2009,07,18,04,34,15.20
2009,07,18,04,35,15.20
2009,07,18,04,36,15.20
2009,07,18,04,37,15.20
2009,07,18,04,38,15.20
2009,07,18,04,39,15.20
2009,07,18,04,40,15.30
2009,07,18,04,41,15.30
2009,07,18,04,42,15.30
2009,07,18,04,43,15.40
2009,07,18,04,44,15.40
2009,07,18,04,45,15.40
2009,07,18,04,46,15.40
2009,07,18,04,47,15.50
2009,07,18,04,48,15.50
2009,07,18,04,49,15.50
2009,07,18,04,50,15.50
2009,07,18,04,51,15.50
2009,07,18,04,52,15.50
2009,07,18,04,53,15.50
2009,07,18,04,54,15.50
2009,07,18,04,55,15.50
2009,07,18,04,56,15.50
2009,07,18,04,57,15.50
2009,07,18,04,58,15.50
2009,07,18,04,59,15.50
2009,07,18,05,00,15.50
2009,07,18,05,01,15.50
2009,07,18,05,02,15.40
2009,07,18,05,03,15.40
2009,07,18,05,04,15.40
2009,07,18,05,05,15.40
2009,07,18,05,06,15.40
2009,07,18,05,07,15.40
2009,07,18,05,08,15.40
2009,07,18,05,09,15.30
2009,07,18,05,10,15.30
2009,07,18,05,11,15.30
2009,07,18,05,12,15.30
2009,07,18,05,13,15.20
2009,07,18,05,14,15.20
2009,07,18,05,15,15.10
2009,07,18,05,16,15.00
2009,07,18,05,17,15.00
2009,07,18,05,18,15.00
2009,07,18,05,19,15.00
2009,07,18,05,20,15.00
2009,07,18,05,21,15.00
2009,07,18,05,22,15.00
2009,07,18,05,23,15.00
2009,07,18,05,24,15.00
2009,07,18,05,25,15.00
2009,07,18,05,26,15.00
2009,07,18,05,27,15.00
2009,07,18,05,28,15.00
2009,07,18,05,29,15.00
2009,07,18,05,30,15.00
2009,07,18,05,31,14.90
2009,07,18,05,32,14.90
2009,07,18,05,33,14.90
2009,07,18,05,34,15.00
2009,07,18,05,35,15.00
2009,07,18,05,36,15.00
2009,07,18,05,37,15.00
2009,07,18,05,38,15.00
2009,07,18,05,39,15.00
2009,07,18,05,40,15.00
2009,07,18,05,41,15.00
2009,07,18,05,42,15.00
2009,07,18,05,43,15.00
2009,07,18,05,44,15.00
2009,07,18,05,45,15.00
2009,07,18,05,46,15.00
2009,07,18,05,47,15.00
2009,07,18,05,48,14.90
2009,07,18,05,49,14.90
2009,07,18,05,50,14.90
2009,07,18,05,51,14.90
2009,07,18,05,52,14.90
2009,07,18,05,53,14.90
2009,07,18,05,54,14.90
2009,07,18,05,55,15.00
2009,07,18,05,56,15.00
2009,07,18,05,57,15.00
2009,07,18,05,58,15.00
2009,07,18,05,59,15.00
2009,07,18,06,00,15.00
2009,07,18,06,01,15.00
2009,07,18,06,02,15.00
2009,07,18,06,03,15.00
2009,07,18,06,04,15.00
2009,07,18,06,05,15.00
2009,07,18,06,06,15.00
2009,07,18,06,07,15.00
2009,07,18,06,08,15.00
2009,07,18,06,09,15.00
2009,07,18,06,10,15.00
2009,07,18,06,11,15.00
2009,07,18,06,12,15.00
2009,07,18,06,13,15.00
2009,07,18,06,14,15.00
2009,07,18,06,15,15.00
2009,07,18,06,16,15.00
2009,07,18,06,17,15.00
2009,07,18,06,18,15.00
2009,07,18,06,19,15.00
2009,07,18,06,20,15.10
2009,07,18,06,21,15.20
2009,07,18,06,22,15.20
2009,07,18,06,23,15.20
2009,07,18,06,24,15.30
2009,07,18,06,25,15.30
2009,07,18,06,26,15.20
2009,07,18,06,27,15.20
2009,07,18,06,28,15.20
2009,07,18,06,29,15.20
2009,07,18,06,30,15.20
2009,07,18,06,31,15.20
2009,07,18,06,32,15.20
2009,07,18,06,33,15.30
2009,07,18,06,34,15.30
2009,07,18,06,35,15.40
2009,07,18,06,36,15.40
2009,07,18,06,37,15.50
2009,07,18,06,38,15.50
2009,07,18,06,39,15.60
2009,07,18,06,40,15.70
2009,07,18,06,41,15.80
2009,07,18,06,42,15.80
2009,07,18,06,43,15.90
2009,07,18,06,44,16.00
2009,07,18,06,45,16.10
2009,07,18,06,46,16.10
2009,07,18,06,47,16.10
2009,07,18,06,48,16.10
2009,07,18,06,49,16.20
2009,07,18,06,50,16.20
2009,07,18,06,51,16.20
2009,07,18,06,52,16.20
2009,07,18,06,53,16.20
2009,07,18,06,54,16.20
2009,07,18,06,55,16.20
2009,07,18,06,56,16.30
2009,07,18,06,57,16.30
2009,07,18,06,58,16.30
2009,07,18,06,59,16.40
2009,07,18,07,00,16.40
2009,07,18,07,01,16.40
2009,07,18,07,02,16.50
2009,07,18,07,03,16.60
2009,07,18,07,04,16.60
2009,07,18,07,05,16.70
2009,07,18,07,06,16.70
2009,07,18,07,07,16.80
2009,07,18,07,08,16.80
2009,07,18,07,09,16.90
2009,07,18,07,10,16.90
2009,07,18,07,11,17.00
2009,07,18,07,12,17.00
2009,07,18,07,13,17.10
2009,07,18,07,14,17.10
2009,07,18,07,15,17.20
2009,07,18,07,16,17.20
2009,07,18,07,17,17.30
2009,07,18,07,18,17.30
2009,07,18,07,19,17.40
2009,07,18,07,20,17.50
2009,07,18,07,21,17.60
2009,07,18,07,22,17.60
2009,07,18,07,23,17.70
2009,07,18,07,24,17.80
2009,07,18,07,25,17.80
2009,07,18,07,26,17.90
2009,07,18,07,27,17.90
2009,07,18,07,28,18.00
2009,07,18,07,29,18.10
2009,07,18,07,30,18.20
2009,07,18,07,31,18.20
2009,07,18,07,32,18.30
2009,07,18,07,33,18.40
2009,07,18,07,34,18.50
2009,07,18,07,35,18.50
2009,07,18,07,36,18.60
2009,07,18,07,37,18.70
2009,07,18,07,38,18.80
2009,07,18,07,39,18.90
2009,07,18,07,40,19.00
2009,07,18,07,41,19.10
2009,07,18,07,42,19.20
2009,07,18,07,43,19.30
2009,07,18,07,44,19.40
2009,07,18,07,45,19.50
2009,07,18,07,46,19.60
2009,07,18,07,47,19.70
2009,07,18,07,48,19.80
2009,07,18,07,49,19.90
2009,07,18,07,50,20.00
2009,07,18,07,51,20.10
2009,07,18,07,52,20.20
2009,07,18,07,53,20.20
2009,07,18,07,54,20.30
2009,07,18,07,55,20.40
2009,07,18,07,56,20.50
2009,07,18,07,57,20.60
2009,07,18,07,58,20.70
2009,07,18,07,59,20.90
2009,07,18,08,00,20.90
2009,07,18,08,01,21.00
2009,07,18,08,02,21.00
2009,07,18,08,03,21.00
2009,07,18,08,04,20.90
2009,07,18,08,05,20.90
2009,07,18,08,06,20.80
2009,07,18,08,07,20.80
2009,07,18,08,08,20.80
2009,07,18,08,09,20.80
2009,07,18,08,10,20.80
2009,07,18,08,11,20.80
2009,07,18,08,12,20.80
2009,07,18,08,13,20.80
2009,07,18,08,14,20.80
2009,07,18,08,15,20.90
2009,07,18,08,16,20.90
2009,07,18,08,17,20.90
2009,07,18,08,18,20.90
2009,07,18,08,19,20.90
2009,07,18,08,20,20.90
2009,07,18,08,21,20.90
2009,07,18,08,22,20.90
2009,07,18,08,23,21.00
2009,07,18,08,24,21.00
2009,07,18,08,25,21.10
2009,07,18,08,26,21.10
2009,07,18,08,27,21.10
2009,07,18,08,28,21.20
2009,07,18,08,29,21.20
2009,07,18,08,30,21.20
2009,07,18,08,31,21.20
2009,07,18,08,32,21.30
2009,07,18,08,33,21.30
2009,07,18,08,34,21.30
2009,07,18,08,35,21.40
2009,07,18,08,36,21.50
2009,07,18,08,37,21.60
2009,07,18,08,38,21.70
2009,07,18,08,39,21.80
2009,07,18,08,40,21.80
2009,07,18,08,41,21.80
2009,07,18,08,42,21.90
2009,07,18,08,43,21.90
2009,07,18,08,44,22.00
2009,07,18,08,45,22.10
2009,07,18,08,46,22.10
2009,07,18,08,47,22.10
2009,07,18,08,48,22.10
2009,07,18,08,49,22.10
2009,07,18,08,50,22.10
2009,07,18,08,51,22.20
2009,07,18,08,52,22.30
2009,07,18,08,53,22.30
2009,07,18,08,54,22.30
2009,07,18,08,55,22.40
2009,07,18,08,56,22.40
2009,07,18,08,57,22.50
2009,07,18,08,58,22.50
2009,07,18,08,59,22.50
2009,07,18,09,00,22.50
2009,07,18,09,01,22.50
2009,07,18,09,02,22.50
2009,07,18,09,03,22.40
2009,07,18,09,04,22.30
2009,07,18,09,05,22.30
2009,07,18,09,06,22.30
2009,07,18,09,07,22.40
2009,07,18,09,08,22.40
2009,07,18,09,09,22.50
2009,07,18,09,10,22.50
2009,07,18,09,11,22.60
2009,07,18,09,12,22.70
2009,07,18,09,13,22.70
2009,07,18,09,14,22.60
2009,07,18,09,15,22.60
2009,07,18,09,16,22.60
2009,07,18,09,17,22.50
2009,07,18,09,18,22.40
2009,07,18,09,19,22.30
2009,07,18,09,20,22.30
2009,07,18,09,21,22.30
2009,07,18,09,22,22.30
2009,07,18,09,23,22.30
2009,07,18,09,24,22.30
2009,07,18,09,25,22.20
2009,07,18,09,26,22.20
2009,07,18,09,27,22.10
2009,07,18,09,28,22.10
2009,07,18,09,29,22.10
2009,07,18,09,30,22.00
2009,07,18,09,31,22.00
2009,07,18,09,32,21.90
2009,07,18,09,33,21.80
2009,07,18,09,34,21.80
2009,07,18,09,35,21.90
2009,07,18,09,36,21.90
2009,07,18,09,37,21.90
2009,07,18,09,38,22.00
2009,07,18,09,39,22.00
2009,07,18,09,40,22.10
2009,07,18,09,41,22.10
2009,07,18,09,42,22.00
2009,07,18,09,43,22.00
2009,07,18,09,44,21.90
2009,07,18,09,45,21.90
2009,07,18,09,46,21.80
2009,07,18,09,47,21.80
2009,07,18,09,48,21.90
2009,07,18,09,49,21.90
2009,07,18,09,50,22.00
2009,07,18,09,51,22.00
2009,07,18,09,52,22.10
2009,07,18,09,53,22.20
2009,07,18,09,54,22.10
2009,07,18,09,55,22.10
2009,07,18,09,56,22.20
2009,07,18,09,57,22.20
2009,07,18,09,58,22.30
2009,07,18,09,59,22.40
2009,07,18,10,00,22.50
2009,07,18,10,01,22.60
2009,07,18,10,02,22.70
2009,07,18,10,03,22.70
2009,07,18,10,04,22.70
2009,07,18,10,05,22.80
2009,07,18,10,06,22.80
2009,07,18,10,07,22.80
2009,07,18,10,08,22.70
2009,07,18,10,09,22.70
2009,07,18,10,10,22.60
2009,07,18,10,11,22.60
2009,07,18,10,12,22.50
2009,07,18,10,13,22.60
2009,07,18,10,14,22.70
2009,07,18,10,15,22.80
2009,07,18,10,16,23.00
2009,07,18,10,17,23.10
2009,07,18,10,18,23.20
2009,07,18,10,19,23.10
2009,07,18,10,20,23.10
2009,07,18,10,21,23.10
2009,07,18,10,22,23.20
2009,07,18,10,23,23.20
2009,07,18,10,24,23.10
2009,07,18,10,25,23.10
2009,07,18,10,26,23.10
2009,07,18,10,27,23.10
2009,07,18,10,28,23.10
2009,07,18,10,29,23.10
2009,07,18,10,30,23.20
2009,07,18,10,31,23.20
2009,07,18,10,32,23.20
2009,07,18,10,33,23.20
2009,07,18,10,34,23.10
2009,07,18,10,35,23.10
2009,07,18,10,36,23.10
2009,07,18,10,37,23.10
2009,07,18,10,38,23.20
2009,07,18,10,39,23.20
2009,07,18,10,40,23.20
2009,07,18,10,41,23.20
2009,07,18,10,42,23.30
2009,07,18,10,43,23.20
2009,07,18,10,44,23.20
2009,07,18,10,45,23.10
2009,07,18,10,46,23.00
2009,07,18,10,47,22.90
2009,07,18,10,48,22.80
2009,07,18,10,49,22.80
2009,07,18,10,50,22.80
2009,07,18,10,51,22.80
2009,07,18,10,52,22.80
2009,07,18,10,53,22.80
2009,07,18,10,54,22.80
2009,07,18,10,55,22.80
2009,07,18,10,56,22.90
2009,07,18,10,57,23.00
2009,07,18,10,58,23.10
2009,07,18,10,59,23.10
2009,07,18,11,00,23.20
2009,07,18,11,01,23.20
2009,07,18,11,02,23.20
2009,07,18,11,03,23.20
2009,07,18,11,04,23.10
2009,07,18,11,05,23.10
2009,07,18,11,06,23.00
2009,07,18,11,07,22.90
2009,07,18,11,08,22.90
2009,07,18,11,09,22.90
2009,07,18,11,10,22.80
2009,07,18,11,11,22.60
2009,07,18,11,12,22.50
2009,07,18,11,13,22.50
2009,07,18,11,14,22.40
2009,07,18,11,15,22.50
2009,07,18,11,16,22.60
2009,07,18,11,17,22.70
2009,07,18,11,18,22.90
2009,07,18,11,19,23.10
2009,07,18,11,20,23.30
2009,07,18,11,21,23.50
2009,07,18,11,22,23.60
2009,07,18,11,23,23.80
2009,07,18,11,24,23.80
2009,07,18,11,25,23.80
2009,07,18,11,26,23.80
2009,07,18,11,27,23.80
2009,07,18,11,28,23.80
2009,07,18,11,29,23.80
2009,07,18,11,30,23.80
2009,07,18,11,31,23.90
2009,07,18,11,32,24.00
2009,07,18,11,33,24.10
2009,07,18,11,34,24.20
2009,07,18,11,35,24.20
2009,07,18,11,36,24.20
2009,07,18,11,37,24.20
2009,07,18,11,38,24.10
2009,07,18,11,39,24.00
2009,07,18,11,40,23.90
2009,07,18,11,41,23.90
2009,07,18,11,42,24.00
2009,07,18,11,43,24.10
2009,07,18,11,44,24.20
2009,07,18,11,45,24.20
2009,07,18,11,46,24.20
2009,07,18,11,47,24.10
2009,07,18,11,48,24.00
2009,07,18,11,49,23.90
2009,07,18,11,50,23.80
2009,07,18,11,51,23.70
2009,07,18,11,52,23.70
2009,07,18,11,53,23.70
2009,07,18,11,54,23.70
2009,07,18,11,55,23.70
2009,07,18,11,56,23.70
2009,07,18,11,57,23.60
2009,07,18,11,58,23.40
2009,07,18,11,59,23.30
2009,07,18,12,00,23.10
2009,07,18,12,01,23.20
2009,07,18,12,02,23.20
2009,07,18,12,03,23.30
2009,07,18,12,04,23.30
2009,07,18,12,05,23.50
2009,07,18,12,06,23.50
2009,07,18,12,07,23.60
2009,07,18,12,08,23.70
2009,07,18,12,09,23.60
2009,07,18,12,10,23.70
2009,07,18,12,11,23.60
2009,07,18,12,12,23.60
2009,07,18,12,13,23.70
2009,07,18,12,14,23.70
2009,07,18,12,15,23.70
2009,07,18,12,16,23.60
2009,07,18,12,17,23.60
2009,07,18,12,18,23.60
2009,07,18,12,19,23.50
2009,07,18,12,20,23.50
2009,07,18,12,21,23.40
2009,07,18,12,22,23.40
2009,07,18,12,23,23.40
2009,07,18,12,24,23.30
2009,07,18,12,25,23.40
2009,07,18,12,26,23.40
2009,07,18,12,27,23.30
2009,07,18,12,28,23.20
2009,07,18,12,29,23.10
2009,07,18,12,30,23.00
2009,07,18,12,31,22.90
2009,07,18,12,32,22.90
2009,07,18,12,33,22.90
2009,07,18,12,34,22.90
2009,07,18,12,35,22.90
2009,07,18,12,36,22.90
2009,07,18,12,37,22.80
2009,07,18,12,38,22.80
2009,07,18,12,39,22.70
2009,07,18,12,40,22.80
2009,07,18,12,41,22.80
2009,07,18,12,42,22.90
2009,07,18,12,43,22.90
2009,07,18,12,44,23.00
2009,07,18,12,45,22.90
2009,07,18,12,46,22.90
2009,07,18,12,47,22.90
2009,07,18,12,48,22.80
2009,07,18,12,49,22.80
2009,07,18,12,50,22.90
2009,07,18,12,51,22.90
2009,07,18,12,52,22.90
2009,07,18,12,53,22.80
2009,07,18,12,54,22.70
2009,07,18,12,55,22.70
2009,07,18,12,56,22.70
2009,07,18,12,57,22.70
2009,07,18,12,58,22.70
2009,07,18,12,59,22.70
2009,07,18,13,00,22.70
2009,07,18,13,01,22.70
2009,07,18,13,02,22.80
2009,07,18,13,03,22.90
2009,07,18,13,04,23.00
2009,07,18,13,05,23.00
2009,07,18,13,06,23.10
2009,07,18,13,07,23.00
2009,07,18,13,08,23.00
2009,07,18,13,09,22.90
2009,07,18,13,10,22.90
2009,07,18,13,11,23.00
2009,07,18,13,12,23.00
2009,07,18,13,13,23.00
2009,07,18,13,14,22.90
2009,07,18,13,15,22.80
2009,07,18,13,16,22.80
2009,07,18,13,17,22.80
2009,07,18,13,18,22.70
2009,07,18,13,19,22.70
2009,07,18,13,20,22.80
2009,07,18,13,21,22.80
2009,07,18,13,22,22.80
2009,07,18,13,23,22.90
2009,07,18,13,24,22.90
2009,07,18,13,25,23.00
2009,07,18,13,26,23.00
2009,07,18,13,27,23.00
2009,07,18,13,28,22.90
2009,07,18,13,29,22.90
2009,07,18,13,30,22.80
2009,07,18,13,31,22.80
2009,07,18,13,32,22.90
2009,07,18,13,33,23.00
2009,07,18,13,34,22.90
2009,07,18,13,35,22.80
2009,07,18,13,36,22.80
2009,07,18,13,37,22.70
2009,07,18,13,38,22.70
2009,07,18,13,39,22.60
2009,07,18,13,40,22.60
2009,07,18,13,41,22.60
2009,07,18,13,42,22.60
2009,07,18,13,43,22.50
2009,07,18,13,44,22.30
2009,07,18,13,45,22.20
2009,07,18,13,46,22.20
2009,07,18,13,47,22.30
2009,07,18,13,48,22.40
2009,07,18,13,49,22.40
2009,07,18,13,50,22.40
2009,07,18,13,51,22.40
2009,07,18,13,52,22.30
2009,07,18,13,53,22.30
2009,07,18,13,54,22.30
2009,07,18,13,55,22.40
2009,07,18,13,56,22.50
2009,07,18,13,57,22.50
2009,07,18,13,58,22.60
2009,07,18,13,59,22.80
2009,07,18,14,00,22.80
2009,07,18,14,01,23.00
2009,07,18,14,02,23.10
2009,07,18,14,03,23.20
2009,07,18,14,04,23.20
2009,07,18,14,05,23.30
2009,07,18,14,06,23.30
2009,07,18,14,07,23.30
2009,07,18,14,08,23.30
2009,07,18,14,09,23.20
2009,07,18,14,10,23.30
2009,07,18,14,11,23.40
2009,07,18,14,12,23.40
2009,07,18,14,13,23.50
2009,07,18,14,14,23.60
2009,07,18,14,15,23.70
2009,07,18,14,16,23.70
2009,07,18,14,17,23.80
2009,07,18,14,18,23.70
2009,07,18,14,19,23.70
2009,07,18,14,20,23.70
2009,07,18,14,21,23.70
2009,07,18,14,22,23.70
2009,07,18,14,23,23.70
2009,07,18,14,24,23.70
2009,07,18,14,25,23.70
2009,07,18,14,26,23.70
2009,07,18,14,27,23.80
2009,07,18,14,28,23.80
2009,07,18,14,29,23.80
2009,07,18,14,30,23.90
2009,07,18,14,31,23.90
2009,07,18,14,32,23.90
2009,07,18,14,33,23.90
2009,07,18,14,34,23.90
2009,07,18,14,35,23.80
2009,07,18,14,36,23.70
2009,07,18,14,37,23.60
2009,07,18,14,38,23.50
2009,07,18,14,39,23.50
2009,07,18,14,40,23.60
2009,07,18,14,41,23.70
2009,07,18,14,42,23.80
2009,07,18,14,43,23.90
2009,07,18,14,44,24.00
2009,07,18,14,45,24.00
2009,07,18,14,46,24.00
2009,07,18,14,47,24.10
2009,07,18,14,48,24.20
2009,07,18,14,49,24.10
2009,07,18,14,50,24.10
2009,07,18,14,51,24.00
2009,07,18,14,52,24.00
2009,07,18,14,53,24.00
2009,07,18,14,54,24.00
2009,07,18,14,55,24.10
2009,07,18,14,56,24.10
2009,07,18,14,57,24.10
2009,07,18,14,58,24.10
2009,07,18,14,59,24.10
2009,07,18,15,00,24.10
2009,07,18,15,01,24.10
2009,07,18,15,02,24.10
2009,07,18,15,03,24.10
2009,07,18,15,04,24.10
2009,07,18,15,05,24.10
2009,07,18,15,06,24.20
2009,07,18,15,07,24.20
2009,07,18,15,08,24.20
2009,07,18,15,09,24.30
2009,07,18,15,10,24.30
2009,07,18,15,11,24.20
2009,07,18,15,12,24.20
2009,07,18,15,13,24.20
2009,07,18,15,14,24.30
2009,07,18,15,15,24.30
2009,07,18,15,16,24.30
2009,07,18,15,17,24.30
2009,07,18,15,18,24.40
2009,07,18,15,19,24.50
2009,07,18,15,20,24.60
2009,07,18,15,21,24.60
2009,07,18,15,22,24.70
2009,07,18,15,23,24.70
2009,07,18,15,24,24.70
2009,07,18,15,25,24.60
2009,07,18,15,26,24.50
2009,07,18,15,27,24.30
2009,07,18,15,28,24.20
2009,07,18,15,29,24.00
2009,07,18,15,30,23.90
2009,07,18,15,31,23.90
2009,07,18,15,32,23.90
2009,07,18,15,33,23.90
2009,07,18,15,34,24.00
2009,07,18,15,35,23.90
2009,07,18,15,36,23.80
2009,07,18,15,37,23.80
2009,07,18,15,38,23.70
2009,07,18,15,39,23.70
2009,07,18,15,40,23.70
2009,07,18,15,41,23.80
2009,07,18,15,42,23.80
2009,07,18,15,43,23.80
2009,07,18,15,44,23.90
2009,07,18,15,45,23.90
2009,07,18,15,46,23.90
2009,07,18,15,47,24.00
2009,07,18,15,48,24.00
2009,07,18,15,49,24.00
2009,07,18,15,50,23.90
2009,07,18,15,51,23.90
2009,07,18,15,52,23.80
2009,07,18,15,53,23.90
2009,07,18,15,54,24.00
2009,07,18,15,55,24.10
2009,07,18,15,56,24.20
2009,07,18,15,57,24.30
2009,07,18,15,58,24.40
2009,07,18,15,59,24.50
2009,07,18,16,00,24.40
2009,07,18,16,01,24.40
2009,07,18,16,02,24.40
2009,07,18,16,03,24.40
2009,07,18,16,04,24.30
2009,07,18,16,05,24.30
2009,07,18,16,06,24.30
2009,07,18,16,07,24.30
2009,07,18,16,08,24.10
2009,07,18,16,09,23.90
2009,07,18,16,10,23.80
2009,07,18,16,11,23.70
2009,07,18,16,12,23.70
2009,07,18,16,13,23.80
2009,07,18,16,14,23.90
2009,07,18,16,15,24.00
2009,07,18,16,16,24.10
2009,07,18,16,17,24.10
2009,07,18,16,18,24.20
2009,07,18,16,19,24.20
2009,07,18,16,20,24.20
2009,07,18,16,21,24.20
2009,07,18,16,22,24.20
2009,07,18,16,23,24.20
2009,07,18,16,24,24.20
2009,07,18,16,25,24.30
2009,07,18,16,26,24.30
2009,07,18,16,27,24.50
2009,07,18,16,28,24.70
2009,07,18,16,29,24.80
2009,07,18,16,30,24.90
2009,07,18,16,31,24.90
2009,07,18,16,32,24.70
2009,07,18,16,33,24.60
2009,07,18,16,34,24.60
2009,07,18,16,35,24.60
2009,07,18,16,36,24.60
2009,07,18,16,37,24.70
2009,07,18,16,38,24.80
2009,07,18,16,39,24.90
2009,07,18,16,40,25.10
2009,07,18,16,41,25.20
2009,07,18,16,42,25.30
2009,07,18,16,43,25.30
2009,07,18,16,44,25.40
2009,07,18,16,45,25.40
2009,07,18,16,46,25.40
2009,07,18,16,47,25.50
2009,07,18,16,48,25.40
2009,07,18,16,49,25.30
2009,07,18,16,50,25.30
2009,07,18,16,51,25.30
2009,07,18,16,52,25.30
2009,07,18,16,53,25.20
2009,07,18,16,54,25.10
2009,07,18,16,55,25.10
2009,07,18,16,56,25.00
2009,07,18,16,57,25.00
2009,07,18,16,58,25.10
2009,07,18,16,59,25.00
2009,07,18,17,00,25.10
2009,07,18,17,01,25.00
2009,07,18,17,02,25.10
2009,07,18,17,03,25.20
2009,07,18,17,04,25.20
2009,07,18,17,05,25.30
2009,07,18,17,06,25.30
2009,07,18,17,07,25.30
2009,07,18,17,08,25.40
2009,07,18,17,09,25.30
2009,07,18,17,10,25.40
2009,07,18,17,11,25.40
2009,07,18,17,12,25.40
2009,07,18,17,13,25.40
2009,07,18,17,14,25.40
2009,07,18,17,15,25.30
2009,07,18,17,16,25.30
2009,07,18,17,17,25.20
2009,07,18,17,18,25.00
2009,07,18,17,19,25.00